Simultaneous Nadir Overpasses (SNOs) Predictions

Prediction of SNOs between GOES-17 and NOAA-19 Satellite Orbit:

Table of predicted SNOs for the next 14.0 days since TLE Epoch: 2/14/2025
Index Date Time (GOES-17) GOES-17 Lat,Lon NOAA-19 Lat,Lon Distance(km) Time Diff (sec)
1 02/15/2025 16:28:54 -0.01,-104.34 -0.50,-102.22 242.71 80
2 02/18/2025 04:45:03 0.01,-104.07 -0.60,-106.69 299.79 80
3 02/19/2025 04:35:09 0.01,-103.96 0.07,-103.64 36.09 80
4 02/20/2025 04:22:36 0.01,-103.85 0.74,-100.59 371.89 80
5 02/22/2025 16:38:43 -0.00,-103.56 0.37,-105.05 170.83 80
6 02/23/2025 16:28:50 -0.01,-103.45 -0.36,-102.01 164.82 80
7 02/26/2025 04:47:36 0.01,-103.17 -0.77,-106.47 377.27 80
8 02/27/2025 04:35:03 0.01,-103.05 -0.08,-103.42 41.54 80
9 02/28/2025 04:19:49 0.01,-102.94 0.61,-100.37 294.29 80
